Flag for U.S.A. Weather past 2 weeks in Colorado Springs, Colorado, U.S.A.

Now
71 °F

Mostly cloudy.


Feels Like: 77 °F
Forecast: 54 / 70 °F
Wind: 6 mph from Northeast

Location: City Of Colorado Springs Municipal Airport

Current Time: Aug 22, 2014 at 10:43:59 AM

Latest Report: Aug 22, 2014 at 9:54 AM


Visibility: 10 mi

Pressure: 29.97 "Hg

Humidity: 51%

Dew point: 52 °F

Location of Colorado SpringsLocation

Historic Weather in Colorado Springs — Graph

°F

Colorado Springs temperature yesterday

Maximum temperature yesterday: 83 °F (at 5:54 PM)
Minimum temperature yesterday: 59 °F (at 5:54 AM)
Average temperature yesterday: 72 °F

Past Weeks' High & Low Weather Summary

 TemperatureHumidityPressure
High88 °F (Aug 17, 1:54 PM)93% (Aug 10, 6:54 PM)30.41 "Hg (Aug 10, 6:54 PM)
Low52 °F (Aug 11, 5:54 AM)16% (Aug 17, 10:54 AM)29.71 "Hg (Aug 20, 1:54 AM)
Average70 °F51%29.96 "Hg
* Reported Aug 7 8:54 AM — Aug 22 8:54 AM, Colorado Springs, Weather by CustomWeather, © 2014

Note: Actual official high and low records may vary slightly from our data, if they occured in-between our weather recording intervals... More about our weather records

Advertising

Colorado Springs weather history for previous 24 hours

 ConditionsComfort  
Time TempWeatherWind HumidityBarometerVisibility
8:54 AM
Aug 22
67 °FMostly cloudy.7 mph59%29.98 "Hg10 mi
7:54 AM64 °FMostly cloudy.6 mph63%29.96 "Hg10 mi
6:54 AM62 °FMostly cloudy.8 mph65%29.95 "Hg10 mi
5:54 AM62 °FPassing clouds.7 mph65%29.92 "Hg10 mi
4:54 AM63 °FMostly cloudy.12 mph60%29.91 "Hg10 mi
3:54 AM63 °FPassing clouds.14 mph60%29.91 "Hg10 mi
2:54 AM65 °FPartly cloudy.10 mph56%29.89 "Hg10 mi
1:54 AM67 °FPassing clouds.12 mph53%29.90 "Hg10 mi
12:54 AM68 °FPassing clouds.9 mph53%29.90 "Hg10 mi
11:54 PM
Aug 21
67 °FPartly cloudy.8 mph57%29.91 "Hg10 mi
10:54 PM69 °FPassing clouds.14 mph51%29.92 "Hg10 mi
9:54 PM69 °FPassing clouds.16 mph51%29.93 "Hg10 mi
8:54 PM68 °FPartly cloudy.7 mph45%29.91 "Hg10 mi
7:54 PM76 °FBroken clouds.7 mph31%29.87 "Hg10 mi
6:54 PM79 °FScattered clouds.8 mph27%29.88 "Hg10 mi
5:54 PM83 °FScattered clouds.8 mph20%29.87 "Hg10 mi
4:54 PM82 °FScattered clouds.6 mph21%29.85 "Hg10 mi
3:54 PM81 °FScattered clouds.No wind22%29.87 "Hg10 mi
2:54 PM82 °FScattered clouds.9 mph25%29.87 "Hg10 mi
1:54 PM81 °FScattered clouds.7 mph25%29.88 "Hg10 mi
12:54 PM80 °FScattered clouds.8 mph30%29.89 "Hg10 mi
11:54 AM79 °FScattered clouds.10 mph30%29.89 "Hg10 mi
10:54 AM76 °FScattered clouds.9 mph39%29.91 "Hg10 mi
Weather by CustomWeather, © 2014

See weather overviewHow to use our weather pages